Index of /20260422/WXO-DD/model_rdps/10km/18/004
Name Last modified Size Description
Parent Directory -
20260422T18Z_MSC_RDPS_AbsoluteVorticity_IsbL-0250_RLatLon0.09_PT004H.grib2 2026-04-22 20:41 622K
20260422T18Z_MSC_RDPS_AbsoluteVorticity_IsbL-0500_RLatLon0.09_PT004H.grib2 2026-04-22 20:41 572K
20260422T18Z_MSC_RDPS_AbsoluteVorticity_IsbL-0700_RLatLon0.09_PT004H.grib2 2026-04-22 20:41 630K
20260422T18Z_MSC_RDPS_AbsoluteVorticity_IsbL-0850_RLatLon0.09_PT004H.grib2 2026-04-22 20:41 782K
20260422T18Z_MSC_RDPS_AirTemp_AGL-120m_RLatLon0.09_PT004H.grib2 2026-04-22 20:41 375K
20260422T18Z_MSC_RDPS_AirTemp_AGL-2m_RLatLon0.09_PT004H.grib2 2026-04-22 20:41 622K
20260422T18Z_MSC_RDPS_AirTemp_AGL-40m_RLatLon0.09_PT004H.grib2 2026-04-22 20:41 384K
20260422T18Z_MSC_RDPS_AirTemp_AGL-80m_RLatLon0.09_PT004H.grib2 2026-04-22 20:41 379K
20260422T18Z_MSC_RDPS_AirTemp_IsbL-0001_RLatLon0.09_PT004H.grib2 2026-04-22 20:41 309K
20260422T18Z_MSC_RDPS_AirTemp_IsbL-0005_RLatLon0.09_PT004H.grib2 2026-04-22 20:41 323K
20260422T18Z_MSC_RDPS_AirTemp_IsbL-0010_RLatLon0.09_PT004H.grib2 2026-04-22 20:41 291K
20260422T18Z_MSC_RDPS_AirTemp_IsbL-0020_RLatLon0.09_PT004H.grib2 2026-04-22 20:41 312K
20260422T18Z_MSC_RDPS_AirTemp_IsbL-0030_RLatLon0.09_PT004H.grib2 2026-04-22 20:41 333K
20260422T18Z_MSC_RDPS_AirTemp_IsbL-0050_RLatLon0.09_PT004H.grib2 2026-04-22 20:41 316K
20260422T18Z_MSC_RDPS_AirTemp_IsbL-0100_RLatLon0.09_PT004H.grib2 2026-04-22 20:41 421K
20260422T18Z_MSC_RDPS_AirTemp_IsbL-0150_RLatLon0.09_PT004H.grib2 2026-04-22 20:41 423K
20260422T18Z_MSC_RDPS_AirTemp_IsbL-0175_RLatLon0.09_PT004H.grib2 2026-04-22 20:41 425K
20260422T18Z_MSC_RDPS_AirTemp_IsbL-0200_RLatLon0.09_PT004H.grib2 2026-04-22 20:41 428K
20260422T18Z_MSC_RDPS_AirTemp_IsbL-0225_RLatLon0.09_PT004H.grib2 2026-04-22 20:41 424K
20260422T18Z_MSC_RDPS_AirTemp_IsbL-0250_RLatLon0.09_PT004H.grib2 2026-04-22 20:41 424K
20260422T18Z_MSC_RDPS_AirTemp_IsbL-0275_RLatLon0.09_PT004H.grib2 2026-04-22 20:41 406K
20260422T18Z_MSC_RDPS_AirTemp_IsbL-0300_RLatLon0.09_PT004H.grib2 2026-04-22 20:41 412K
20260422T18Z_MSC_RDPS_AirTemp_IsbL-0350_RLatLon0.09_PT004H.grib2 2026-04-22 20:41 429K
20260422T18Z_MSC_RDPS_AirTemp_IsbL-0400_RLatLon0.09_PT004H.grib2 2026-04-22 20:41 398K
20260422T18Z_MSC_RDPS_AirTemp_IsbL-0450_RLatLon0.09_PT004H.grib2 2026-04-22 20:41 409K
20260422T18Z_MSC_RDPS_AirTemp_IsbL-0500_RLatLon0.09_PT004H.grib2 2026-04-22 20:41 423K
20260422T18Z_MSC_RDPS_AirTemp_IsbL-0550_RLatLon0.09_PT004H.grib2 2026-04-22 20:41 443K
20260422T18Z_MSC_RDPS_AirTemp_IsbL-0600_RLatLon0.09_PT004H.grib2 2026-04-22 20:41 461K
20260422T18Z_MSC_RDPS_AirTemp_IsbL-0650_RLatLon0.09_PT004H.grib2 2026-04-22 20:41 473K
20260422T18Z_MSC_RDPS_AirTemp_IsbL-0700_RLatLon0.09_PT004H.grib2 2026-04-22 20:41 496K
20260422T18Z_MSC_RDPS_AirTemp_IsbL-0750_RLatLon0.09_PT004H.grib2 2026-04-22 20:41 419K
20260422T18Z_MSC_RDPS_AirTemp_IsbL-0800_RLatLon0.09_PT004H.grib2 2026-04-22 20:41 465K
20260422T18Z_MSC_RDPS_AirTemp_IsbL-0850_RLatLon0.09_PT004H.grib2 2026-04-22 20:41 503K
20260422T18Z_MSC_RDPS_AirTemp_IsbL-0875_RLatLon0.09_PT004H.grib2 2026-04-22 20:41 513K
20260422T18Z_MSC_RDPS_AirTemp_IsbL-0900_RLatLon0.09_PT004H.grib2 2026-04-22 20:41 518K
20260422T18Z_MSC_RDPS_AirTemp_IsbL-0925_RLatLon0.09_PT004H.grib2 2026-04-22 20:41 518K
20260422T18Z_MSC_RDPS_AirTemp_IsbL-0950_RLatLon0.09_PT004H.grib2 2026-04-22 20:41 532K
20260422T18Z_MSC_RDPS_AirTemp_IsbL-0970_RLatLon0.09_PT004H.grib2 2026-04-22 20:41 529K
20260422T18Z_MSC_RDPS_AirTemp_IsbL-0985_RLatLon0.09_PT004H.grib2 2026-04-22 20:41 522K
20260422T18Z_MSC_RDPS_AirTemp_IsbL-1000_RLatLon0.09_PT004H.grib2 2026-04-22 20:41 505K
20260422T18Z_MSC_RDPS_AirTemp_IsbL-1015_RLatLon0.09_PT004H.grib2 2026-04-22 20:41 499K
20260422T18Z_MSC_RDPS_Albedo_Sfc_RLatLon0.09_PT004H.grib2 2026-04-22 20:41 161K
20260422T18Z_MSC_RDPS_CAPE_Sfc_RLatLon0.09_PT004H.grib2 2026-04-22 20:41 1.8M
20260422T18Z_MSC_RDPS_CIN_Sfc_RLatLon0.09_PT004H.grib2 2026-04-22 20:41 1.2M
20260422T18Z_MSC_RDPS_CloudWater_EAtm_RLatLon0.09_PT004H.grib2 2026-04-22 20:41 216K
20260422T18Z_MSC_RDPS_ConvectivePrecip-Accum_Sfc_RLatLon0.09_PT004H.grib2 2026-04-22 20:41 534K
20260422T18Z_MSC_RDPS_DewPointDepression_AGL-2m_RLatLon0.09_PT004H.grib2 2026-04-22 20:41 411K
20260422T18Z_MSC_RDPS_DewPointDepression_IsbL-0001_RLatLon0.09_PT004H.grib2 2026-04-22 20:41 193
20260422T18Z_MSC_RDPS_DewPointDepression_IsbL-0005_RLatLon0.09_PT004H.grib2 2026-04-22 20:41 193
20260422T18Z_MSC_RDPS_DewPointDepression_IsbL-0010_RLatLon0.09_PT004H.grib2 2026-04-22 20:41 193
20260422T18Z_MSC_RDPS_DewPointDepression_IsbL-0020_RLatLon0.09_PT004H.grib2 2026-04-22 20:41 193
20260422T18Z_MSC_RDPS_DewPointDepression_IsbL-0030_RLatLon0.09_PT004H.grib2 2026-04-22 20:41 193
20260422T18Z_MSC_RDPS_DewPointDepression_IsbL-0050_RLatLon0.09_PT004H.grib2 2026-04-22 20:41 89K
20260422T18Z_MSC_RDPS_DewPointDepression_IsbL-0100_RLatLon0.09_PT004H.grib2 2026-04-22 20:41 126K
20260422T18Z_MSC_RDPS_DewPointDepression_IsbL-0150_RLatLon0.09_PT004H.grib2 2026-04-22 20:41 157K
20260422T18Z_MSC_RDPS_DewPointDepression_IsbL-0175_RLatLon0.09_PT004H.grib2 2026-04-22 20:41 194K
20260422T18Z_MSC_RDPS_DewPointDepression_IsbL-0200_RLatLon0.09_PT004H.grib2 2026-04-22 20:41 230K
20260422T18Z_MSC_RDPS_DewPointDepression_IsbL-0225_RLatLon0.09_PT004H.grib2 2026-04-22 20:41 263K
20260422T18Z_MSC_RDPS_DewPointDepression_IsbL-0250_RLatLon0.09_PT004H.grib2 2026-04-22 20:41 298K
20260422T18Z_MSC_RDPS_DewPointDepression_IsbL-0275_RLatLon0.09_PT004H.grib2 2026-04-22 20:41 312K
20260422T18Z_MSC_RDPS_DewPointDepression_IsbL-0300_RLatLon0.09_PT004H.grib2 2026-04-22 20:41 332K
20260422T18Z_MSC_RDPS_DewPointDepression_IsbL-0350_RLatLon0.09_PT004H.grib2 2026-04-22 20:41 339K
20260422T18Z_MSC_RDPS_DewPointDepression_IsbL-0400_RLatLon0.09_PT004H.grib2 2026-04-22 20:41 354K
20260422T18Z_MSC_RDPS_DewPointDepression_IsbL-0450_RLatLon0.09_PT004H.grib2 2026-04-22 20:41 364K
20260422T18Z_MSC_RDPS_DewPointDepression_IsbL-0500_RLatLon0.09_PT004H.grib2 2026-04-22 20:41 372K
20260422T18Z_MSC_RDPS_DewPointDepression_IsbL-0550_RLatLon0.09_PT004H.grib2 2026-04-22 20:41 380K
20260422T18Z_MSC_RDPS_DewPointDepression_IsbL-0600_RLatLon0.09_PT004H.grib2 2026-04-22 20:41 386K
20260422T18Z_MSC_RDPS_DewPointDepression_IsbL-0650_RLatLon0.09_PT004H.grib2 2026-04-22 20:41 390K
20260422T18Z_MSC_RDPS_DewPointDepression_IsbL-0700_RLatLon0.09_PT004H.grib2 2026-04-22 20:41 399K
20260422T18Z_MSC_RDPS_DewPointDepression_IsbL-0750_RLatLon0.09_PT004H.grib2 2026-04-22 20:41 417K
20260422T18Z_MSC_RDPS_DewPointDepression_IsbL-0800_RLatLon0.09_PT004H.grib2 2026-04-22 20:41 451K
20260422T18Z_MSC_RDPS_DewPointDepression_IsbL-0850_RLatLon0.09_PT004H.grib2 2026-04-22 20:41 460K
20260422T18Z_MSC_RDPS_DewPointDepression_IsbL-0875_RLatLon0.09_PT004H.grib2 2026-04-22 20:41 457K
20260422T18Z_MSC_RDPS_DewPointDepression_IsbL-0900_RLatLon0.09_PT004H.grib2 2026-04-22 20:41 453K
20260422T18Z_MSC_RDPS_DewPointDepression_IsbL-0925_RLatLon0.09_PT004H.grib2 2026-04-22 20:41 446K
20260422T18Z_MSC_RDPS_DewPointDepression_IsbL-0950_RLatLon0.09_PT004H.grib2 2026-04-22 20:41 440K
20260422T18Z_MSC_RDPS_DewPointDepression_IsbL-0970_RLatLon0.09_PT004H.grib2 2026-04-22 20:41 432K
20260422T18Z_MSC_RDPS_DewPointDepression_IsbL-0985_RLatLon0.09_PT004H.grib2 2026-04-22 20:41 427K
20260422T18Z_MSC_RDPS_DewPointDepression_IsbL-1000_RLatLon0.09_PT004H.grib2 2026-04-22 20:41 419K
20260422T18Z_MSC_RDPS_DewPointDepression_IsbL-1015_RLatLon0.09_PT004H.grib2 2026-04-22 20:41 410K
20260422T18Z_MSC_RDPS_DewPoint_AGL-2m_RLatLon0.09_PT004H.grib2 2026-04-22 20:41 391K
20260422T18Z_MSC_RDPS_DownwardLongwaveRadiationFlux-Accum_Sfc_RLatLon0.09_PT004H.grib2 2026-04-22 20:41 484K
20260422T18Z_MSC_RDPS_DownwardShortwaveRadiationFlux-Accum_NTAtm_RLatLon0.09_PT004H.grib2 2026-04-22 20:41 144K
20260422T18Z_MSC_RDPS_DownwardShortwaveRadiationFlux-Accum_Sfc_RLatLon0.09_PT004H.grib2 2026-04-22 20:41 551K
20260422T18Z_MSC_RDPS_FreezingRain-Accum1h_Sfc_RLatLon0.09_PT004H.grib2 2026-04-22 20:41 12K
20260422T18Z_MSC_RDPS_FreezingRain-Accum_Sfc_RLatLon0.09_PT004H.grib2 2026-04-22 20:41 18K
20260422T18Z_MSC_RDPS_GeopotentialHeight_IsbL-0001_RLatLon0.09_PT004H.grib2 2026-04-22 20:41 278K
20260422T18Z_MSC_RDPS_GeopotentialHeight_IsbL-0005_RLatLon0.09_PT004H.grib2 2026-04-22 20:41 240K
20260422T18Z_MSC_RDPS_GeopotentialHeight_IsbL-0010_RLatLon0.09_PT004H.grib2 2026-04-22 20:41 345K
20260422T18Z_MSC_RDPS_GeopotentialHeight_IsbL-0020_RLatLon0.09_PT004H.grib2 2026-04-22 20:41 312K
20260422T18Z_MSC_RDPS_GeopotentialHeight_IsbL-0030_RLatLon0.09_PT004H.grib2 2026-04-22 20:41 314K
20260422T18Z_MSC_RDPS_GeopotentialHeight_IsbL-0050_RLatLon0.09_PT004H.grib2 2026-04-22 20:41 316K
20260422T18Z_MSC_RDPS_GeopotentialHeight_IsbL-0100_RLatLon0.09_PT004H.grib2 2026-04-22 20:41 294K
20260422T18Z_MSC_RDPS_GeopotentialHeight_IsbL-0150_RLatLon0.09_PT004H.grib2 2026-04-22 20:41 237K
20260422T18Z_MSC_RDPS_GeopotentialHeight_IsbL-0175_RLatLon0.09_PT004H.grib2 2026-04-22 20:41 272K
20260422T18Z_MSC_RDPS_GeopotentialHeight_IsbL-0200_RLatLon0.09_PT004H.grib2 2026-04-22 20:41 275K
20260422T18Z_MSC_RDPS_GeopotentialHeight_IsbL-0225_RLatLon0.09_PT004H.grib2 2026-04-22 20:41 276K
20260422T18Z_MSC_RDPS_GeopotentialHeight_IsbL-0250_RLatLon0.09_PT004H.grib2 2026-04-22 20:41 277K
20260422T18Z_MSC_RDPS_GeopotentialHeight_IsbL-0275_RLatLon0.09_PT004H.grib2 2026-04-22 20:41 275K
20260422T18Z_MSC_RDPS_GeopotentialHeight_IsbL-0300_RLatLon0.09_PT004H.grib2 2026-04-22 20:41 275K
20260422T18Z_MSC_RDPS_GeopotentialHeight_IsbL-0350_RLatLon0.09_PT004H.grib2 2026-04-22 20:41 240K
20260422T18Z_MSC_RDPS_GeopotentialHeight_IsbL-0400_RLatLon0.09_PT004H.grib2 2026-04-22 20:41 236K
20260422T18Z_MSC_RDPS_GeopotentialHeight_IsbL-0450_RLatLon0.09_PT004H.grib2 2026-04-22 20:41 307K
20260422T18Z_MSC_RDPS_GeopotentialHeight_IsbL-0500_RLatLon0.09_PT004H.grib2 2026-04-22 20:41 303K
20260422T18Z_MSC_RDPS_GeopotentialHeight_IsbL-0550_RLatLon0.09_PT004H.grib2 2026-04-22 20:41 298K
20260422T18Z_MSC_RDPS_GeopotentialHeight_IsbL-0600_RLatLon0.09_PT004H.grib2 2026-04-22 20:41 295K
20260422T18Z_MSC_RDPS_GeopotentialHeight_IsbL-0650_RLatLon0.09_PT004H.grib2 2026-04-22 20:41 292K
20260422T18Z_MSC_RDPS_GeopotentialHeight_IsbL-0700_RLatLon0.09_PT004H.grib2 2026-04-22 20:41 262K
20260422T18Z_MSC_RDPS_GeopotentialHeight_IsbL-0750_RLatLon0.09_PT004H.grib2 2026-04-22 20:41 264K
20260422T18Z_MSC_RDPS_GeopotentialHeight_IsbL-0800_RLatLon0.09_PT004H.grib2 2026-04-22 20:41 269K
20260422T18Z_MSC_RDPS_GeopotentialHeight_IsbL-0850_RLatLon0.09_PT004H.grib2 2026-04-22 20:41 274K
20260422T18Z_MSC_RDPS_GeopotentialHeight_IsbL-0875_RLatLon0.09_PT004H.grib2 2026-04-22 20:41 277K
20260422T18Z_MSC_RDPS_GeopotentialHeight_IsbL-0900_RLatLon0.09_PT004H.grib2 2026-04-22 20:41 281K
20260422T18Z_MSC_RDPS_GeopotentialHeight_IsbL-0925_RLatLon0.09_PT004H.grib2 2026-04-22 20:41 283K
20260422T18Z_MSC_RDPS_GeopotentialHeight_IsbL-0950_RLatLon0.09_PT004H.grib2 2026-04-22 20:41 287K
20260422T18Z_MSC_RDPS_GeopotentialHeight_IsbL-0970_RLatLon0.09_PT004H.grib2 2026-04-22 20:41 293K
20260422T18Z_MSC_RDPS_GeopotentialHeight_IsbL-0985_RLatLon0.09_PT004H.grib2 2026-04-22 20:41 300K
20260422T18Z_MSC_RDPS_GeopotentialHeight_IsbL-1000_RLatLon0.09_PT004H.grib2 2026-04-22 20:41 308K
20260422T18Z_MSC_RDPS_GeopotentialHeight_IsbL-1015_RLatLon0.09_PT004H.grib2 2026-04-22 20:41 319K
20260422T18Z_MSC_RDPS_Humidex_Sfc_RLatLon0.09_PT004H.grib2 2026-04-22 20:41 2.4M
20260422T18Z_MSC_RDPS_IcePellets-Accum1h_Sfc_RLatLon0.09_PT004H.grib2 2026-04-22 20:41 9.9K
20260422T18Z_MSC_RDPS_IcePellets-Accum_Sfc_RLatLon0.09_PT004H.grib2 2026-04-22 20:41 14K
20260422T18Z_MSC_RDPS_KIndex_Sfc_RLatLon0.09_PT004H.grib2 2026-04-22 20:41 2.3M
20260422T18Z_MSC_RDPS_LatentHeatNetFlux_Sfc_RLatLon0.09_PT004H.grib2 2026-04-22 20:41 295K
20260422T18Z_MSC_RDPS_LiftedIndex-MU-VT_IsbL-0500_RLatLon0.09_PT004H.grib2 2026-04-22 20:41 2.4M
20260422T18Z_MSC_RDPS_NetLongwaveRadiationFlux-Accum_Sfc_RLatLon0.09_PT004H.grib2 2026-04-22 20:41 511K
20260422T18Z_MSC_RDPS_NetShortwaveRadiationFlux-Accum_Sfc_RLatLon0.09_PT004H.grib2 2026-04-22 20:41 543K
20260422T18Z_MSC_RDPS_PlanetaryBoundaryLayerHeight_Sfc_RLatLon0.09_PT004H.grib2 2026-04-22 20:41 1.0M
20260422T18Z_MSC_RDPS_Precip-Accum1h_Sfc_RLatLon0.09_PT004H.grib2 2026-04-22 20:41 1.1M
20260422T18Z_MSC_RDPS_Precip-Accum_Sfc_RLatLon0.09_PT004H.grib2 2026-04-22 20:41 1.4M
20260422T18Z_MSC_RDPS_PrecipRate_Sfc_RLatLon0.09_PT004H.grib2 2026-04-22 20:41 174K
20260422T18Z_MSC_RDPS_PrecipType-Instant_Sfc_RLatLon0.09_PT004H.grib2 2026-04-22 20:41 596K
20260422T18Z_MSC_RDPS_Pressure-Trend3h_Sfc_RLatLon0.09_PT004H.grib2 2026-04-22 20:41 1.2M
20260422T18Z_MSC_RDPS_Pressure_MSL_RLatLon0.09_PT004H.grib2 2026-04-22 20:41 334K
20260422T18Z_MSC_RDPS_Pressure_PVU-1.5_RLatLon0.09_PT004H.grib2 2026-04-22 20:41 2.5M
20260422T18Z_MSC_RDPS_Pressure_PVU-1_RLatLon0.09_PT004H.grib2 2026-04-22 20:41 2.4M
20260422T18Z_MSC_RDPS_Pressure_PVU-2_RLatLon0.09_PT004H.grib2 2026-04-22 20:41 2.4M
20260422T18Z_MSC_RDPS_Pressure_Sfc_RLatLon0.09_PT004H.grib2 2026-04-22 20:41 501K
20260422T18Z_MSC_RDPS_RadiativeTemp_Sfc_RLatLon0.09_PT004H.grib2 2026-04-22 20:41 323K
20260422T18Z_MSC_RDPS_Rain-Accum1h_Sfc_RLatLon0.09_PT004H.grib2 2026-04-22 20:41 520K
20260422T18Z_MSC_RDPS_Rain-Accum_Sfc_RLatLon0.09_PT004H.grib2 2026-04-22 20:41 1.0M
20260422T18Z_MSC_RDPS_RelativeHumidity_AGL-2m_RLatLon0.09_PT004H.grib2 2026-04-22 20:41 1.0M
20260422T18Z_MSC_RDPS_RelativeHumidity_IsbL-0010_RLatLon0.09_PT004H.grib2 2026-04-22 20:41 621K
20260422T18Z_MSC_RDPS_RelativeHumidity_IsbL-0020_RLatLon0.09_PT004H.grib2 2026-04-22 20:41 652K
20260422T18Z_MSC_RDPS_RelativeHumidity_IsbL-0030_RLatLon0.09_PT004H.grib2 2026-04-22 20:41 539K
20260422T18Z_MSC_RDPS_RelativeHumidity_IsbL-0050_RLatLon0.09_PT004H.grib2 2026-04-22 20:41 380K
20260422T18Z_MSC_RDPS_RelativeHumidity_IsbL-0100_RLatLon0.09_PT004H.grib2 2026-04-22 20:41 264K
20260422T18Z_MSC_RDPS_RelativeHumidity_IsbL-0150_RLatLon0.09_PT004H.grib2 2026-04-22 20:41 381K
20260422T18Z_MSC_RDPS_RelativeHumidity_IsbL-0175_RLatLon0.09_PT004H.grib2 2026-04-22 20:41 478K
20260422T18Z_MSC_RDPS_RelativeHumidity_IsbL-0200_RLatLon0.09_PT004H.grib2 2026-04-22 20:41 569K
20260422T18Z_MSC_RDPS_RelativeHumidity_IsbL-0225_RLatLon0.09_PT004H.grib2 2026-04-22 20:41 635K
20260422T18Z_MSC_RDPS_RelativeHumidity_IsbL-0250_RLatLon0.09_PT004H.grib2 2026-04-22 20:41 693K
20260422T18Z_MSC_RDPS_RelativeHumidity_IsbL-0275_RLatLon0.09_PT004H.grib2 2026-04-22 20:41 714K
20260422T18Z_MSC_RDPS_RelativeHumidity_IsbL-0300_RLatLon0.09_PT004H.grib2 2026-04-22 20:41 753K
20260422T18Z_MSC_RDPS_RelativeHumidity_IsbL-0350_RLatLon0.09_PT004H.grib2 2026-04-22 20:41 772K
20260422T18Z_MSC_RDPS_RelativeHumidity_IsbL-0400_RLatLon0.09_PT004H.grib2 2026-04-22 20:41 789K
20260422T18Z_MSC_RDPS_RelativeHumidity_IsbL-0450_RLatLon0.09_PT004H.grib2 2026-04-22 20:41 801K
20260422T18Z_MSC_RDPS_RelativeHumidity_IsbL-0500_RLatLon0.09_PT004H.grib2 2026-04-22 20:41 825K
20260422T18Z_MSC_RDPS_RelativeHumidity_IsbL-0550_RLatLon0.09_PT004H.grib2 2026-04-22 20:41 846K
20260422T18Z_MSC_RDPS_RelativeHumidity_IsbL-0600_RLatLon0.09_PT004H.grib2 2026-04-22 20:41 864K
20260422T18Z_MSC_RDPS_RelativeHumidity_IsbL-0650_RLatLon0.09_PT004H.grib2 2026-04-22 20:41 874K
20260422T18Z_MSC_RDPS_RelativeHumidity_IsbL-0700_RLatLon0.09_PT004H.grib2 2026-04-22 20:41 891K
20260422T18Z_MSC_RDPS_RelativeHumidity_IsbL-0750_RLatLon0.09_PT004H.grib2 2026-04-22 20:41 929K
20260422T18Z_MSC_RDPS_RelativeHumidity_IsbL-0800_RLatLon0.09_PT004H.grib2 2026-04-22 20:41 1.0M
20260422T18Z_MSC_RDPS_RelativeHumidity_IsbL-0850_RLatLon0.09_PT004H.grib2 2026-04-22 20:41 1.0M
20260422T18Z_MSC_RDPS_RelativeHumidity_IsbL-0875_RLatLon0.09_PT004H.grib2 2026-04-22 20:41 1.0M
20260422T18Z_MSC_RDPS_RelativeHumidity_IsbL-0900_RLatLon0.09_PT004H.grib2 2026-04-22 20:41 1.0M
20260422T18Z_MSC_RDPS_RelativeHumidity_IsbL-0925_RLatLon0.09_PT004H.grib2 2026-04-22 20:41 1.0M
20260422T18Z_MSC_RDPS_RelativeHumidity_IsbL-0950_RLatLon0.09_PT004H.grib2 2026-04-22 20:41 1.0M
20260422T18Z_MSC_RDPS_RelativeHumidity_IsbL-0970_RLatLon0.09_PT004H.grib2 2026-04-22 20:41 1.0M
20260422T18Z_MSC_RDPS_RelativeHumidity_IsbL-0985_RLatLon0.09_PT004H.grib2 2026-04-22 20:41 1.0M
20260422T18Z_MSC_RDPS_RelativeHumidity_IsbL-1000_RLatLon0.09_PT004H.grib2 2026-04-22 20:41 1.0M
20260422T18Z_MSC_RDPS_RelativeHumidity_IsbL-1015_RLatLon0.09_PT004H.grib2 2026-04-22 20:41 1.0M
20260422T18Z_MSC_RDPS_Runoff-Accum_Sfc_RLatLon0.09_PT004H.grib2 2026-04-22 20:41 38K
20260422T18Z_MSC_RDPS_SWEATIndex_Sfc_RLatLon0.09_PT004H.grib2 2026-04-22 20:41 2.4M
20260422T18Z_MSC_RDPS_SeeingIndex_EAtm_RLatLon0.09_PT004H.grib2 2026-04-22 20:41 1.0M
20260422T18Z_MSC_RDPS_SensibleHeatNetFlux_Sfc_RLatLon0.09_PT004H.grib2 2026-04-22 20:41 351K
20260422T18Z_MSC_RDPS_ShowalterIndex_IsbL-0500_RLatLon0.09_PT004H.grib2 2026-04-22 20:41 2.6M
20260422T18Z_MSC_RDPS_SkyTransparencyIndex_EAtm_RLatLon0.09_PT004H.grib2 2026-04-22 20:41 717K
20260422T18Z_MSC_RDPS_Snow-Accum1h_Sfc_RLatLon0.09_PT004H.grib2 2026-04-22 20:41 433K
20260422T18Z_MSC_RDPS_Snow-Accum_Sfc_RLatLon0.09_PT004H.grib2 2026-04-22 20:41 597K
20260422T18Z_MSC_RDPS_SnowDensity_Sfc_RLatLon0.09_PT004H.grib2 2026-04-22 20:41 171K
20260422T18Z_MSC_RDPS_SnowDepth_Sfc_RLatLon0.09_PT004H.grib2 2026-04-22 20:41 703K
20260422T18Z_MSC_RDPS_SoilTemp_DBS-0to10cm_RLatLon0.09_PT004H.grib2 2026-04-22 20:41 201K
20260422T18Z_MSC_RDPS_SoilTemp_Sfc_RLatLon0.09_PT004H.grib2 2026-04-22 20:41 283K
20260422T18Z_MSC_RDPS_SoilVolumetricIceContent_Sfc_RLatLon0.09_PT004H.grib2 2026-04-22 20:41 169K
20260422T18Z_MSC_RDPS_SoilVolumetricWaterContent_DBS-0to10cm_RLatLon0.09_PT004H.grib2 2026-04-22 20:41 251K
20260422T18Z_MSC_RDPS_SoilVolumetricWaterContent_DBS-0to1cm_RLatLon0.09_PT004H.grib2 2026-04-22 20:41 333K
20260422T18Z_MSC_RDPS_SpecificHumidity_AGL-120m_RLatLon0.09_PT004H.grib2 2026-04-22 20:41 474K
20260422T18Z_MSC_RDPS_SpecificHumidity_AGL-2m_RLatLon0.09_PT004H.grib2 2026-04-22 20:41 640K
20260422T18Z_MSC_RDPS_SpecificHumidity_AGL-40m_RLatLon0.09_PT004H.grib2 2026-04-22 20:41 479K
20260422T18Z_MSC_RDPS_SpecificHumidity_AGL-80m_RLatLon0.09_PT004H.grib2 2026-04-22 20:41 475K
20260422T18Z_MSC_RDPS_SpecificHumidity_IsbL-0001_RLatLon0.09_PT004H.grib2 2026-04-22 20:41 335K
20260422T18Z_MSC_RDPS_SpecificHumidity_IsbL-0005_RLatLon0.09_PT004H.grib2 2026-04-22 20:41 443K
20260422T18Z_MSC_RDPS_SpecificHumidity_IsbL-0010_RLatLon0.09_PT004H.grib2 2026-04-22 20:41 379K
20260422T18Z_MSC_RDPS_SpecificHumidity_IsbL-0020_RLatLon0.09_PT004H.grib2 2026-04-22 20:41 373K
20260422T18Z_MSC_RDPS_SpecificHumidity_IsbL-0030_RLatLon0.09_PT004H.grib2 2026-04-22 20:41 479K
20260422T18Z_MSC_RDPS_SpecificHumidity_IsbL-0050_RLatLon0.09_PT004H.grib2 2026-04-22 20:41 469K
20260422T18Z_MSC_RDPS_SpecificHumidity_IsbL-0100_RLatLon0.09_PT004H.grib2 2026-04-22 20:41 522K
20260422T18Z_MSC_RDPS_SpecificHumidity_IsbL-0150_RLatLon0.09_PT004H.grib2 2026-04-22 20:41 463K
20260422T18Z_MSC_RDPS_SpecificHumidity_IsbL-0175_RLatLon0.09_PT004H.grib2 2026-04-22 20:41 451K
20260422T18Z_MSC_RDPS_SpecificHumidity_IsbL-0200_RLatLon0.09_PT004H.grib2 2026-04-22 20:41 556K
20260422T18Z_MSC_RDPS_SpecificHumidity_IsbL-0225_RLatLon0.09_PT004H.grib2 2026-04-22 20:41 561K
20260422T18Z_MSC_RDPS_SpecificHumidity_IsbL-0250_RLatLon0.09_PT004H.grib2 2026-04-22 20:41 560K
20260422T18Z_MSC_RDPS_SpecificHumidity_IsbL-0275_RLatLon0.09_PT004H.grib2 2026-04-22 20:41 479K
20260422T18Z_MSC_RDPS_SpecificHumidity_IsbL-0300_RLatLon0.09_PT004H.grib2 2026-04-22 20:41 548K
20260422T18Z_MSC_RDPS_SpecificHumidity_IsbL-0350_RLatLon0.09_PT004H.grib2 2026-04-22 20:41 540K
20260422T18Z_MSC_RDPS_SpecificHumidity_IsbL-0400_RLatLon0.09_PT004H.grib2 2026-04-22 20:41 524K
20260422T18Z_MSC_RDPS_SpecificHumidity_IsbL-0450_RLatLon0.09_PT004H.grib2 2026-04-22 20:41 580K
20260422T18Z_MSC_RDPS_SpecificHumidity_IsbL-0500_RLatLon0.09_PT004H.grib2 2026-04-22 20:41 520K
20260422T18Z_MSC_RDPS_SpecificHumidity_IsbL-0550_RLatLon0.09_PT004H.grib2 2026-04-22 20:41 578K
20260422T18Z_MSC_RDPS_SpecificHumidity_IsbL-0600_RLatLon0.09_PT004H.grib2 2026-04-22 20:41 644K
20260422T18Z_MSC_RDPS_SpecificHumidity_IsbL-0650_RLatLon0.09_PT004H.grib2 2026-04-22 20:41 558K
20260422T18Z_MSC_RDPS_SpecificHumidity_IsbL-0700_RLatLon0.09_PT004H.grib2 2026-04-22 20:41 596K
20260422T18Z_MSC_RDPS_SpecificHumidity_IsbL-0750_RLatLon0.09_PT004H.grib2 2026-04-22 20:41 647K
20260422T18Z_MSC_RDPS_SpecificHumidity_IsbL-0800_RLatLon0.09_PT004H.grib2 2026-04-22 20:41 730K
20260422T18Z_MSC_RDPS_SpecificHumidity_IsbL-0850_RLatLon0.09_PT004H.grib2 2026-04-22 20:41 787K
20260422T18Z_MSC_RDPS_SpecificHumidity_IsbL-0875_RLatLon0.09_PT004H.grib2 2026-04-22 20:41 806K
20260422T18Z_MSC_RDPS_SpecificHumidity_IsbL-0900_RLatLon0.09_PT004H.grib2 2026-04-22 20:41 821K
20260422T18Z_MSC_RDPS_SpecificHumidity_IsbL-0925_RLatLon0.09_PT004H.grib2 2026-04-22 20:41 687K
20260422T18Z_MSC_RDPS_SpecificHumidity_IsbL-0950_RLatLon0.09_PT004H.grib2 2026-04-22 20:41 688K
20260422T18Z_MSC_RDPS_SpecificHumidity_IsbL-0970_RLatLon0.09_PT004H.grib2 2026-04-22 20:41 680K
20260422T18Z_MSC_RDPS_SpecificHumidity_IsbL-0985_RLatLon0.09_PT004H.grib2 2026-04-22 20:41 673K
20260422T18Z_MSC_RDPS_SpecificHumidity_IsbL-1000_RLatLon0.09_PT004H.grib2 2026-04-22 20:41 664K
20260422T18Z_MSC_RDPS_SpecificHumidity_IsbL-1015_RLatLon0.09_PT004H.grib2 2026-04-22 20:41 653K
20260422T18Z_MSC_RDPS_SpecificHumidity_Sfc_RLatLon0.09_PT004H.grib2 2026-04-22 20:41 336K
20260422T18Z_MSC_RDPS_StormRelativeHelicity_EtaL-10000_RLatLon0.09_PT004H.grib2 2026-04-22 20:41 1.1M
20260422T18Z_MSC_RDPS_StormSeverityIndex_EtaL-10000_RLatLon0.09_PT004H.grib2 2026-04-22 20:41 1.2M
20260422T18Z_MSC_RDPS_Thickness_IsbL-0850to0700_RLatLon0.09_PT004H.grib2 2026-04-22 20:41 182K
20260422T18Z_MSC_RDPS_Thickness_IsbL-1000to0500_RLatLon0.09_PT004H.grib2 2026-04-22 20:41 206K
20260422T18Z_MSC_RDPS_Thickness_IsbL-1000to0850_RLatLon0.09_PT004H.grib2 2026-04-22 20:41 191K
20260422T18Z_MSC_RDPS_TotalCloudCover_Sfc_RLatLon0.09_PT004H.grib2 2026-04-22 20:41 654K
20260422T18Z_MSC_RDPS_TotalTotalsIndex_Sfc_RLatLon0.09_PT004H.grib2 2026-04-22 20:41 2.4M
20260422T18Z_MSC_RDPS_UVIndex-ClearSky_Sfc_RLatLon0.09_PT004H.grib2 2026-04-22 20:41 170K
20260422T18Z_MSC_RDPS_UVIndex_Sfc_RLatLon0.09_PT004H.grib2 2026-04-22 20:41 398K
20260422T18Z_MSC_RDPS_UpwardLongwaveRadiationFlux_NTAtm_RLatLon0.09_PT004H.grib2 2026-04-22 20:41 499K
20260422T18Z_MSC_RDPS_UpwardShortwaveRadiationFlux_NTAtm_RLatLon0.09_PT004H.grib2 2026-04-22 20:41 449K
20260422T18Z_MSC_RDPS_VerticalVelocity_IsbL-0250_RLatLon0.09_PT004H.grib2 2026-04-22 20:41 474K
20260422T18Z_MSC_RDPS_VerticalVelocity_IsbL-0500_RLatLon0.09_PT004H.grib2 2026-04-22 20:41 565K
20260422T18Z_MSC_RDPS_VerticalVelocity_IsbL-0700_RLatLon0.09_PT004H.grib2 2026-04-22 20:41 648K
20260422T18Z_MSC_RDPS_VerticalVelocity_IsbL-0850_RLatLon0.09_PT004H.grib2 2026-04-22 20:41 709K
20260422T18Z_MSC_RDPS_VerticalWindShear_EtaL-6500_RLatLon0.09_PT004H.grib2 2026-04-22 20:41 1.2M
20260422T18Z_MSC_RDPS_WindChill_Sfc_RLatLon0.09_PT004H.grib2 2026-04-22 20:41 1.2M
20260422T18Z_MSC_RDPS_WindDir_AGL-10m_RLatLon0.09_PT004H.grib2 2026-04-22 20:41 929K
20260422T18Z_MSC_RDPS_WindDir_AGL-120m_RLatLon0.09_PT004H.grib2 2026-04-22 20:41 584K
20260422T18Z_MSC_RDPS_WindDir_AGL-40m_RLatLon0.09_PT004H.grib2 2026-04-22 20:41 603K
20260422T18Z_MSC_RDPS_WindDir_AGL-80m_RLatLon0.09_PT004H.grib2 2026-04-22 20:41 592K
20260422T18Z_MSC_RDPS_WindDir_IsbL-0001_RLatLon0.09_PT004H.grib2 2026-04-22 20:41 257K
20260422T18Z_MSC_RDPS_WindDir_IsbL-0005_RLatLon0.09_PT004H.grib2 2026-04-22 20:41 353K
20260422T18Z_MSC_RDPS_WindDir_IsbL-0010_RLatLon0.09_PT004H.grib2 2026-04-22 20:41 379K
20260422T18Z_MSC_RDPS_WindDir_IsbL-0020_RLatLon0.09_PT004H.grib2 2026-04-22 20:41 389K
20260422T18Z_MSC_RDPS_WindDir_IsbL-0030_RLatLon0.09_PT004H.grib2 2026-04-22 20:41 384K
20260422T18Z_MSC_RDPS_WindDir_IsbL-0050_RLatLon0.09_PT004H.grib2 2026-04-22 20:41 400K
20260422T18Z_MSC_RDPS_WindDir_IsbL-0100_RLatLon0.09_PT004H.grib2 2026-04-22 20:41 413K
20260422T18Z_MSC_RDPS_WindDir_IsbL-0150_RLatLon0.09_PT004H.grib2 2026-04-22 20:41 414K
20260422T18Z_MSC_RDPS_WindDir_IsbL-0175_RLatLon0.09_PT004H.grib2 2026-04-22 20:41 435K
20260422T18Z_MSC_RDPS_WindDir_IsbL-0200_RLatLon0.09_PT004H.grib2 2026-04-22 20:41 445K
20260422T18Z_MSC_RDPS_WindDir_IsbL-0225_RLatLon0.09_PT004H.grib2 2026-04-22 20:41 446K
20260422T18Z_MSC_RDPS_WindDir_IsbL-0250_RLatLon0.09_PT004H.grib2 2026-04-22 20:41 445K
20260422T18Z_MSC_RDPS_WindDir_IsbL-0275_RLatLon0.09_PT004H.grib2 2026-04-22 20:41 459K
20260422T18Z_MSC_RDPS_WindDir_IsbL-0300_RLatLon0.09_PT004H.grib2 2026-04-22 20:41 458K
20260422T18Z_MSC_RDPS_WindDir_IsbL-0350_RLatLon0.09_PT004H.grib2 2026-04-22 20:41 485K
20260422T18Z_MSC_RDPS_WindDir_IsbL-0400_RLatLon0.09_PT004H.grib2 2026-04-22 20:41 506K
20260422T18Z_MSC_RDPS_WindDir_IsbL-0450_RLatLon0.09_PT004H.grib2 2026-04-22 20:41 524K
20260422T18Z_MSC_RDPS_WindDir_IsbL-0500_RLatLon0.09_PT004H.grib2 2026-04-22 20:41 546K
20260422T18Z_MSC_RDPS_WindDir_IsbL-0550_RLatLon0.09_PT004H.grib2 2026-04-22 20:41 573K
20260422T18Z_MSC_RDPS_WindDir_IsbL-0600_RLatLon0.09_PT004H.grib2 2026-04-22 20:41 596K
20260422T18Z_MSC_RDPS_WindDir_IsbL-0650_RLatLon0.09_PT004H.grib2 2026-04-22 20:41 641K
20260422T18Z_MSC_RDPS_WindDir_IsbL-0700_RLatLon0.09_PT004H.grib2 2026-04-22 20:41 687K
20260422T18Z_MSC_RDPS_WindDir_IsbL-0750_RLatLon0.09_PT004H.grib2 2026-04-22 20:41 730K
20260422T18Z_MSC_RDPS_WindDir_IsbL-0800_RLatLon0.09_PT004H.grib2 2026-04-22 20:41 792K
20260422T18Z_MSC_RDPS_WindDir_IsbL-0850_RLatLon0.09_PT004H.grib2 2026-04-22 20:41 848K
20260422T18Z_MSC_RDPS_WindDir_IsbL-0875_RLatLon0.09_PT004H.grib2 2026-04-22 20:41 865K
20260422T18Z_MSC_RDPS_WindDir_IsbL-0900_RLatLon0.09_PT004H.grib2 2026-04-22 20:41 875K
20260422T18Z_MSC_RDPS_WindDir_IsbL-0925_RLatLon0.09_PT004H.grib2 2026-04-22 20:41 884K
20260422T18Z_MSC_RDPS_WindDir_IsbL-0950_RLatLon0.09_PT004H.grib2 2026-04-22 20:41 881K
20260422T18Z_MSC_RDPS_WindDir_IsbL-0970_RLatLon0.09_PT004H.grib2 2026-04-22 20:41 887K
20260422T18Z_MSC_RDPS_WindDir_IsbL-0985_RLatLon0.09_PT004H.grib2 2026-04-22 20:41 896K
20260422T18Z_MSC_RDPS_WindDir_IsbL-1000_RLatLon0.09_PT004H.grib2 2026-04-22 20:41 909K
20260422T18Z_MSC_RDPS_WindDir_IsbL-1015_RLatLon0.09_PT004H.grib2 2026-04-22 20:41 921K
20260422T18Z_MSC_RDPS_WindGust-Max_AGL-10m_RLatLon0.09_PT004H.grib2 2026-04-22 20:41 940K
20260422T18Z_MSC_RDPS_WindGust-Min_AGL-10m_RLatLon0.09_PT004H.grib2 2026-04-22 20:41 1.0M
20260422T18Z_MSC_RDPS_WindGust_AGL-10m_RLatLon0.09_PT004H.grib2 2026-04-22 20:41 1.0M
20260422T18Z_MSC_RDPS_WindSpeed_AGL-10m_RLatLon0.09_PT004H.grib2 2026-04-22 20:41 840K
20260422T18Z_MSC_RDPS_WindSpeed_AGL-120m_RLatLon0.09_PT004H.grib2 2026-04-22 20:41 535K
20260422T18Z_MSC_RDPS_WindSpeed_AGL-40m_RLatLon0.09_PT004H.grib2 2026-04-22 20:41 543K
20260422T18Z_MSC_RDPS_WindSpeed_AGL-80m_RLatLon0.09_PT004H.grib2 2026-04-22 20:41 537K
20260422T18Z_MSC_RDPS_WindSpeed_IsbL-0001_RLatLon0.09_PT004H.grib2 2026-04-22 20:41 243K
20260422T18Z_MSC_RDPS_WindSpeed_IsbL-0005_RLatLon0.09_PT004H.grib2 2026-04-22 20:41 286K
20260422T18Z_MSC_RDPS_WindSpeed_IsbL-0010_RLatLon0.09_PT004H.grib2 2026-04-22 20:41 298K
20260422T18Z_MSC_RDPS_WindSpeed_IsbL-0020_RLatLon0.09_PT004H.grib2 2026-04-22 20:41 319K
20260422T18Z_MSC_RDPS_WindSpeed_IsbL-0030_RLatLon0.09_PT004H.grib2 2026-04-22 20:41 320K
20260422T18Z_MSC_RDPS_WindSpeed_IsbL-0050_RLatLon0.09_PT004H.grib2 2026-04-22 20:41 457K
20260422T18Z_MSC_RDPS_WindSpeed_IsbL-0100_RLatLon0.09_PT004H.grib2 2026-04-22 20:41 483K
20260422T18Z_MSC_RDPS_WindSpeed_IsbL-0150_RLatLon0.09_PT004H.grib2 2026-04-22 20:41 488K
20260422T18Z_MSC_RDPS_WindSpeed_IsbL-0175_RLatLon0.09_PT004H.grib2 2026-04-22 20:41 411K
20260422T18Z_MSC_RDPS_WindSpeed_IsbL-0200_RLatLon0.09_PT004H.grib2 2026-04-22 20:41 451K
20260422T18Z_MSC_RDPS_WindSpeed_IsbL-0225_RLatLon0.09_PT004H.grib2 2026-04-22 20:41 456K
20260422T18Z_MSC_RDPS_WindSpeed_IsbL-0250_RLatLon0.09_PT004H.grib2 2026-04-22 20:41 455K
20260422T18Z_MSC_RDPS_WindSpeed_IsbL-0275_RLatLon0.09_PT004H.grib2 2026-04-22 20:41 467K
20260422T18Z_MSC_RDPS_WindSpeed_IsbL-0300_RLatLon0.09_PT004H.grib2 2026-04-22 20:41 464K
20260422T18Z_MSC_RDPS_WindSpeed_IsbL-0350_RLatLon0.09_PT004H.grib2 2026-04-22 20:41 475K
20260422T18Z_MSC_RDPS_WindSpeed_IsbL-0400_RLatLon0.09_PT004H.grib2 2026-04-22 20:41 481K
20260422T18Z_MSC_RDPS_WindSpeed_IsbL-0450_RLatLon0.09_PT004H.grib2 2026-04-22 20:41 468K
20260422T18Z_MSC_RDPS_WindSpeed_IsbL-0500_RLatLon0.09_PT004H.grib2 2026-04-22 20:41 473K
20260422T18Z_MSC_RDPS_WindSpeed_IsbL-0550_RLatLon0.09_PT004H.grib2 2026-04-22 20:41 478K
20260422T18Z_MSC_RDPS_WindSpeed_IsbL-0600_RLatLon0.09_PT004H.grib2 2026-04-22 20:41 608K
20260422T18Z_MSC_RDPS_WindSpeed_IsbL-0650_RLatLon0.09_PT004H.grib2 2026-04-22 20:41 670K
20260422T18Z_MSC_RDPS_WindSpeed_IsbL-0700_RLatLon0.09_PT004H.grib2 2026-04-22 20:41 690K
20260422T18Z_MSC_RDPS_WindSpeed_IsbL-0750_RLatLon0.09_PT004H.grib2 2026-04-22 20:41 717K
20260422T18Z_MSC_RDPS_WindSpeed_IsbL-0800_RLatLon0.09_PT004H.grib2 2026-04-22 20:41 765K
20260422T18Z_MSC_RDPS_WindSpeed_IsbL-0850_RLatLon0.09_PT004H.grib2 2026-04-22 20:41 816K
20260422T18Z_MSC_RDPS_WindSpeed_IsbL-0875_RLatLon0.09_PT004H.grib2 2026-04-22 20:41 835K
20260422T18Z_MSC_RDPS_WindSpeed_IsbL-0900_RLatLon0.09_PT004H.grib2 2026-04-22 20:41 849K
20260422T18Z_MSC_RDPS_WindSpeed_IsbL-0925_RLatLon0.09_PT004H.grib2 2026-04-22 20:41 854K
20260422T18Z_MSC_RDPS_WindSpeed_IsbL-0950_RLatLon0.09_PT004H.grib2 2026-04-22 20:41 853K
20260422T18Z_MSC_RDPS_WindSpeed_IsbL-0970_RLatLon0.09_PT004H.grib2 2026-04-22 20:41 856K
20260422T18Z_MSC_RDPS_WindSpeed_IsbL-0985_RLatLon0.09_PT004H.grib2 2026-04-22 20:41 855K
20260422T18Z_MSC_RDPS_WindSpeed_IsbL-1000_RLatLon0.09_PT004H.grib2 2026-04-22 20:41 851K
20260422T18Z_MSC_RDPS_WindSpeed_IsbL-1015_RLatLon0.09_PT004H.grib2 2026-04-22 20:41 843K
20260422T18Z_MSC_RDPS_WindU_AGL-10m_RLatLon0.09_PT004H.grib2 2026-04-22 20:41 437K
20260422T18Z_MSC_RDPS_WindU_AGL-120m_RLatLon0.09_PT004H.grib2 2026-04-22 20:41 535K
20260422T18Z_MSC_RDPS_WindU_AGL-40m_RLatLon0.09_PT004H.grib2 2026-04-22 20:41 540K
20260422T18Z_MSC_RDPS_WindU_AGL-80m_RLatLon0.09_PT004H.grib2 2026-04-22 20:41 537K
20260422T18Z_MSC_RDPS_WindU_IsbL-0001_RLatLon0.09_PT004H.grib2 2026-04-22 20:41 236K
20260422T18Z_MSC_RDPS_WindU_IsbL-0005_RLatLon0.09_PT004H.grib2 2026-04-22 20:41 322K
20260422T18Z_MSC_RDPS_WindU_IsbL-0010_RLatLon0.09_PT004H.grib2 2026-04-22 20:41 333K
20260422T18Z_MSC_RDPS_WindU_IsbL-0020_RLatLon0.09_PT004H.grib2 2026-04-22 20:41 319K
20260422T18Z_MSC_RDPS_WindU_IsbL-0030_RLatLon0.09_PT004H.grib2 2026-04-22 20:41 350K
20260422T18Z_MSC_RDPS_WindU_IsbL-0050_RLatLon0.09_PT004H.grib2 2026-04-22 20:41 345K
20260422T18Z_MSC_RDPS_WindU_IsbL-0100_RLatLon0.09_PT004H.grib2 2026-04-22 20:41 435K
20260422T18Z_MSC_RDPS_WindU_IsbL-0150_RLatLon0.09_PT004H.grib2 2026-04-22 20:41 399K
20260422T18Z_MSC_RDPS_WindU_IsbL-0175_RLatLon0.09_PT004H.grib2 2026-04-22 20:41 426K
20260422T18Z_MSC_RDPS_WindU_IsbL-0200_RLatLon0.09_PT004H.grib2 2026-04-22 20:41 444K
20260422T18Z_MSC_RDPS_WindU_IsbL-0225_RLatLon0.09_PT004H.grib2 2026-04-22 20:41 448K
20260422T18Z_MSC_RDPS_WindU_IsbL-0250_RLatLon0.09_PT004H.grib2 2026-04-22 20:41 446K
20260422T18Z_MSC_RDPS_WindU_IsbL-0275_RLatLon0.09_PT004H.grib2 2026-04-22 20:41 357K
20260422T18Z_MSC_RDPS_WindU_IsbL-0300_RLatLon0.09_PT004H.grib2 2026-04-22 20:41 353K
20260422T18Z_MSC_RDPS_WindU_IsbL-0350_RLatLon0.09_PT004H.grib2 2026-04-22 20:41 360K
20260422T18Z_MSC_RDPS_WindU_IsbL-0400_RLatLon0.09_PT004H.grib2 2026-04-22 20:41 365K
20260422T18Z_MSC_RDPS_WindU_IsbL-0450_RLatLon0.09_PT004H.grib2 2026-04-22 20:41 369K
20260422T18Z_MSC_RDPS_WindU_IsbL-0500_RLatLon0.09_PT004H.grib2 2026-04-22 20:41 477K
20260422T18Z_MSC_RDPS_WindU_IsbL-0550_RLatLon0.09_PT004H.grib2 2026-04-22 20:41 483K
20260422T18Z_MSC_RDPS_WindU_IsbL-0600_RLatLon0.09_PT004H.grib2 2026-04-22 20:41 493K
20260422T18Z_MSC_RDPS_WindU_IsbL-0650_RLatLon0.09_PT004H.grib2 2026-04-22 20:41 510K
20260422T18Z_MSC_RDPS_WindU_IsbL-0700_RLatLon0.09_PT004H.grib2 2026-04-22 20:41 526K
20260422T18Z_MSC_RDPS_WindU_IsbL-0750_RLatLon0.09_PT004H.grib2 2026-04-22 20:41 536K
20260422T18Z_MSC_RDPS_WindU_IsbL-0800_RLatLon0.09_PT004H.grib2 2026-04-22 20:41 579K
20260422T18Z_MSC_RDPS_WindU_IsbL-0850_RLatLon0.09_PT004H.grib2 2026-04-22 20:41 623K
20260422T18Z_MSC_RDPS_WindU_IsbL-0875_RLatLon0.09_PT004H.grib2 2026-04-22 20:41 647K
20260422T18Z_MSC_RDPS_WindU_IsbL-0900_RLatLon0.09_PT004H.grib2 2026-04-22 20:41 656K
20260422T18Z_MSC_RDPS_WindU_IsbL-0925_RLatLon0.09_PT004H.grib2 2026-04-22 20:41 656K
20260422T18Z_MSC_RDPS_WindU_IsbL-0950_RLatLon0.09_PT004H.grib2 2026-04-22 20:41 653K
20260422T18Z_MSC_RDPS_WindU_IsbL-0970_RLatLon0.09_PT004H.grib2 2026-04-22 20:41 655K
20260422T18Z_MSC_RDPS_WindU_IsbL-0985_RLatLon0.09_PT004H.grib2 2026-04-22 20:41 794K
20260422T18Z_MSC_RDPS_WindU_IsbL-1000_RLatLon0.09_PT004H.grib2 2026-04-22 20:41 790K
20260422T18Z_MSC_RDPS_WindU_IsbL-1015_RLatLon0.09_PT004H.grib2 2026-04-22 20:41 784K
20260422T18Z_MSC_RDPS_WindV_AGL-10m_RLatLon0.09_PT004H.grib2 2026-04-22 20:41 432K
20260422T18Z_MSC_RDPS_WindV_AGL-120m_RLatLon0.09_PT004H.grib2 2026-04-22 20:41 529K
20260422T18Z_MSC_RDPS_WindV_AGL-40m_RLatLon0.09_PT004H.grib2 2026-04-22 20:41 533K
20260422T18Z_MSC_RDPS_WindV_AGL-80m_RLatLon0.09_PT004H.grib2 2026-04-22 20:41 530K
20260422T18Z_MSC_RDPS_WindV_IsbL-0001_RLatLon0.09_PT004H.grib2 2026-04-22 20:41 285K
20260422T18Z_MSC_RDPS_WindV_IsbL-0005_RLatLon0.09_PT004H.grib2 2026-04-22 20:41 319K
20260422T18Z_MSC_RDPS_WindV_IsbL-0010_RLatLon0.09_PT004H.grib2 2026-04-22 20:41 331K
20260422T18Z_MSC_RDPS_WindV_IsbL-0020_RLatLon0.09_PT004H.grib2 2026-04-22 20:41 310K
20260422T18Z_MSC_RDPS_WindV_IsbL-0030_RLatLon0.09_PT004H.grib2 2026-04-22 20:41 351K
20260422T18Z_MSC_RDPS_WindV_IsbL-0050_RLatLon0.09_PT004H.grib2 2026-04-22 20:41 344K
20260422T18Z_MSC_RDPS_WindV_IsbL-0100_RLatLon0.09_PT004H.grib2 2026-04-22 20:41 334K
20260422T18Z_MSC_RDPS_WindV_IsbL-0150_RLatLon0.09_PT004H.grib2 2026-04-22 20:41 396K
20260422T18Z_MSC_RDPS_WindV_IsbL-0175_RLatLon0.09_PT004H.grib2 2026-04-22 20:41 422K
20260422T18Z_MSC_RDPS_WindV_IsbL-0200_RLatLon0.09_PT004H.grib2 2026-04-22 20:41 342K
20260422T18Z_MSC_RDPS_WindV_IsbL-0225_RLatLon0.09_PT004H.grib2 2026-04-22 20:41 346K
20260422T18Z_MSC_RDPS_WindV_IsbL-0250_RLatLon0.09_PT004H.grib2 2026-04-22 20:41 370K
20260422T18Z_MSC_RDPS_WindV_IsbL-0275_RLatLon0.09_PT004H.grib2 2026-04-22 20:41 379K
20260422T18Z_MSC_RDPS_WindV_IsbL-0300_RLatLon0.09_PT004H.grib2 2026-04-22 20:41 376K
20260422T18Z_MSC_RDPS_WindV_IsbL-0350_RLatLon0.09_PT004H.grib2 2026-04-22 20:41 383K
20260422T18Z_MSC_RDPS_WindV_IsbL-0400_RLatLon0.09_PT004H.grib2 2026-04-22 20:41 387K
20260422T18Z_MSC_RDPS_WindV_IsbL-0450_RLatLon0.09_PT004H.grib2 2026-04-22 20:41 366K
20260422T18Z_MSC_RDPS_WindV_IsbL-0500_RLatLon0.09_PT004H.grib2 2026-04-22 20:41 474K
20260422T18Z_MSC_RDPS_WindV_IsbL-0550_RLatLon0.09_PT004H.grib2 2026-04-22 20:41 479K
20260422T18Z_MSC_RDPS_WindV_IsbL-0600_RLatLon0.09_PT004H.grib2 2026-04-22 20:41 490K
20260422T18Z_MSC_RDPS_WindV_IsbL-0650_RLatLon0.09_PT004H.grib2 2026-04-22 20:41 506K
20260422T18Z_MSC_RDPS_WindV_IsbL-0700_RLatLon0.09_PT004H.grib2 2026-04-22 20:41 508K
20260422T18Z_MSC_RDPS_WindV_IsbL-0750_RLatLon0.09_PT004H.grib2 2026-04-22 20:41 532K
20260422T18Z_MSC_RDPS_WindV_IsbL-0800_RLatLon0.09_PT004H.grib2 2026-04-22 20:41 574K
20260422T18Z_MSC_RDPS_WindV_IsbL-0850_RLatLon0.09_PT004H.grib2 2026-04-22 20:41 620K
20260422T18Z_MSC_RDPS_WindV_IsbL-0875_RLatLon0.09_PT004H.grib2 2026-04-22 20:41 636K
20260422T18Z_MSC_RDPS_WindV_IsbL-0900_RLatLon0.09_PT004H.grib2 2026-04-22 20:41 645K
20260422T18Z_MSC_RDPS_WindV_IsbL-0925_RLatLon0.09_PT004H.grib2 2026-04-22 20:41 652K
20260422T18Z_MSC_RDPS_WindV_IsbL-0950_RLatLon0.09_PT004H.grib2 2026-04-22 20:41 788K
20260422T18Z_MSC_RDPS_WindV_IsbL-0970_RLatLon0.09_PT004H.grib2 2026-04-22 20:41 788K
20260422T18Z_MSC_RDPS_WindV_IsbL-0985_RLatLon0.09_PT004H.grib2 2026-04-22 20:41 785K
20260422T18Z_MSC_RDPS_WindV_IsbL-1000_RLatLon0.09_PT004H.grib2 2026-04-22 20:41 781K
20260422T18Z_MSC_RDPS_WindV_IsbL-1015_RLatLon0.09_PT004H.grib2 2026-04-22 20:41 823K